Location: Forest
(37.3641°N, 79.2902°W)
Time: 11:57:10
(UTC+00:00)

ISS - Visible Passes

Search period start: 15 November 2025 00:00
Search period end: 25 November 2025 00:00
Orbit: 415 x 420 km, 51.6° (Epoch: 14 November)

Date Brightness Start Highest point End Pass type
(mag) Time Alt. Az. Time Alt. Az. Time Alt. Az.
15 Nov -1.2 00:12:30 10° WNW 00:14:17 16° NW 00:14:17 16° NW visible
15 Nov -1.9 23:23:45 10° W 23:26:33 24° NNW 23:28:15 16° NNE visible
16 Nov -2.6 22:35:11 10° WSW 22:38:20 37° NW 22:41:28 10° NE visible
17 Nov -1.2 23:25:47 10° NW 23:27:25 13° NNW 23:28:54 11° N visible
18 Nov -1.5 22:36:42 10° WNW 22:39:03 17° NNW 22:41:24 10° NNE visible
20 Nov -1.1 22:39:18 10° NNW 22:39:52 10° NNW 22:40:28 10° N visible
